Regional Weather Roundup
Issued by NWS

Home | Current Version | Previous Version | Graphics & Text | Print | Product List | Glossary On
Versions: 1 2 3 4 5 6 7 8 9 10 11 12 13 14 15 16 17 18 19 20 21 22 23 24 25 26 27 28 29 30 31 32 33 34 35 36 37 38 39 40 41 42 43 44 45 46 47 48 49 50
806
ASUS43 KMKX 231600
RWRWI

WISCONSIN REGIONAL WEATHER ROUNDUP
NATIONAL WEATHER SERVICE MILWAUKEE/SULLIVAN WI
1100 AM CDT SUN JUL 23 2017

NOTE: "FAIR" INDICATES FEW OR NO CLOUDS BELOW 12,000 FEET WITH NO
SIGNIFICANT WEATHER AND/OR OBSTRUCTIONS TO VISIBILITY.

WIZ001-002-006>008-014>016-023>028-231700-
NORTHWEST WISCONSIN

CITY           SKY/WX    TMP DP  RH WIND       PRES   REMARKS
SUPERIOR ARPT  NOT AVBL
ASHLAND        CLOUDY    59  57  93 N10       29.93R FOG
HAYWARD        CLOUDY    63  56  78 N10       29.92R
SIREN          CLOUDY    62  56  82 NE7       29.93R
CUMBERLAND     CLOUDY    63  55  77 N9        29.92R
RICE LAKE      CLOUDY    64  58  80 N9        29.92R
CHETEK         PTSUNNY   67  60  78 N10G16    29.90R
LADYSMITH      CLOUDY    65  58  79 N8        29.91R
EAU CLAIRE     NOT AVBL
MENOMONIE      PTSUNNY   72  60  64 NW9       29.89R
NEW RICHMOND   MOSUNNY   71  59  65 N12       29.90S
OSCEOLA        CLOUDY    71  60  69 N9        29.94R
$$

WIZ003>005-009-010-017-018-231700-
NORTH CENTRAL WISCONSIN

CITY           SKY/WX    TMP DP  RH WIND       PRES   REMARKS
MANITOWISH WTR CLOUDY    60  60 100 N6        29.89R
ARBOR VITAE    CLOUDY    62  60  92 N5        29.87R
WOODRUFF       CLOUDY    62  60  92 N5        29.87R
RHINELANDER    CLOUDY    68  61  78 N6        29.88R
EAGLE RIVER    CLOUDY    62  61  96 N7        29.86R
LAND O LAKES   CLOUDY    62  60  93 N8        29.89R
PHILLIPS       CLOUDY    62  60  94 NW6       29.89R
TOMAHAWK         N/A     67  61  78 NW9       29.86R
MEDFORD        MOSUNNY   72  59  62 NW12      29.85R
MERRILL        SUNNY     73  62  68 N5        29.85R
$$

WIZ029-030-035-036-043>047-231700-
CENTRAL WISCONSIN

CITY           SKY/WX    TMP DP  RH WIND       PRES   REMARKS
WAUSAU         SUNNY     76  58  53 NW9       29.82R
MOSINEE        MOSUNNY   77  61  57 NW5       29.84S
MARSHFIELD     PTSUNNY   76  60  57 NW10      29.84R
STEVENS POINT  MOSUNNY   72  63  73 W5        29.83S
WAUPACA        PTSUNNY   78  62  57 W7        29.81R HX  80
WAUTOMA        CLOUDY    76  65  68 W8        29.83R
WISC RAPIDS    SUNNY     79  61  53 NW12      29.84S HX  80
CAMP DOUGLAS   NOT AVBL
$$

WIZ011>013-019>022-031-037>040-048>050-231700-
NORTHEAST WISCONSIN

CITY           SKY/WX    TMP DP  RH WIND       PRES   REMARKS
ANTIGO         MOSUNNY   73  63  69 N8        29.84S
SHAWANO        PTSUNNY   79  65  61 NE3       29.80R HX  81
OCONTO         PTSUNNY   74  67  79 N6        29.78S
STURGEON BAY     N/A     72  66  81 N8        29.79S
GREEN BAY      PTSUNNY   76  69  79 N7        29.79R
MANITOWOC      NOT AVBL
APPLETON       PTSUNNY   75  61  60 W6        29.79S
CLINTONVILLE   MOSUNNY   77  61  57 NW7       29.80R
OSHKOSH        CLOUDY    77  64  64 W6        29.80R
$$

WIZ032>034-041-042-053>061-231700-
SOUTHWEST WISCONSIN

CITY           SKY/WX    TMP DP  RH WIND       PRES   REMARKS
LA CROSSE      PTSUNNY   78  68  71 NW9       29.84S HX  80
SPARTA         MOSUNNY   74  60  61 NW7       29.85S
VIROQUA        PTSUNNY   77  60  56 N7        29.86S
BOSCOBEL       SUNNY     82  68  62 VRB3      29.82F HX  85
PRAIRIE DU CHI SUNNY     79  66  64 CALM      29.82S HX  81
PLATTEVILLE    MOSUNNY   79  75  89 W9G16     29.85F HX  82
$$

WIZ056-057-062-063-064-067-068-231700-
SOUTH CENTRAL WISCONSIN

CITY           SKY/WX    TMP DP  RH WIND       PRES   REMARKS
REEDSBURG      PTSUNNY   75  70  86 N6        29.84R
BARABOO/DELLS  PTSUNNY   75  62  63 CALM      29.84S
LONE ROCK      NOT AVBL
MINERAL POINT  SUNNY     81  72  74 W6        29.85S HX  84
MADISON        CLOUDY    80  66  62 VRB6      29.82R HX  82
MIDDLETON      CLOUDY    80  67  66 NW5       29.84R HX  82
WATERTOWN      PTSUNNY   76  69  79 NW5       29.83R
MONROE         SUNNY     81  64  57 W7        29.84R HX  82
JANESVILLE     SUNNY     82  68  61 CALM      29.82S HX  85
$$

WIZ051-052-058>065-066-070>072-231700-
SOUTHEAST WISCONSIN

CITY           SKY/WX    TMP DP  RH WIND       PRES   REMARKS
MILWAUKEE      MOSUNNY   84  67  56 W12       29.80R HX  86
WAUKESHA       SUNNY     79  66  65 W10G16    29.83R HX  81
MILWAUKEE/TIMM MOSUNNY   81  63  54 NW8       29.81R HX  82
RACINE         PTSUNNY   81  72  74 W7        29.81S HX  85
KENOSHA        MOSUNNY   83  69  62 W10       29.81S HX  86
FOND DU LAC    CLOUDY    75  63  66 W6        29.82R
SHEBOYGAN      CLOUDY    78  68  71 NW12      29.79R HX  80
WEST BEND      PTSUNNY   77  61  57 NW9       29.81R
JUNEAU         MOSUNNY   75  68  78 W5        29.84R
$$

LSZ147-162-231700-
LAKE SUPERIOR

STATION/POSITION TIME  TEMP    WIND        PRES    WAVE
                       AIR SEA DIR/SP/G            HT/PER
                 (UTC) (F)     (DEG/KT/KT) (MB)    (FT/S)
W MID LAKE BUOY  1450   51 47   10/ 10/ 12 1012.4R   2/ 4
DEVILS ISLAND    1500   56      10/  9/ 10 1013.0R
SAXON HARBOR     1540   57     350/  6/  9 1012.5R
$$

LMZ867-665-643>646-231700-
LAKE MICHIGAN

STATION/POSITION TIME  TEMP    WIND        PRES    WAVE
                       AIR SEA DIR/SP/G            HT/PER
                 (UTC) (F)     (DEG/KT/KT) (MB)    (FT/S)
CHAMBERS ISLAND  1540   71     330/  8/ 10 1008.1R
S GREEN BAY BUOY 1530   70 73  350/  6/  8 1008.4S
N MID LAKE BUOY  1450   67 68  240/  8/ 10 1007.6F   1
NORTHPORT PIER   1540   69     320/ 14/ 16 1008.1S
KEWAUNEE LAKESHO 1530   74     330/  6/ 12 1007.7R
SHEBOYGAN LAKESH 1500   76     280/  8/  9 1007.5S
PORT WASHINGTON  1530   83     290/  7/ 11 1009.5R
ATWATER BUOY     1409   71 69  190/  6/  8 1008.8S
MILWAUKEE LAKESH 1530   80     270/  9/ 10   N/A
S MID LAKE BUOY  1450   71 70  180/ 10/ 10 1008.4S   0
KENOSHA   LAKESH 1500   74     160/  6/  7 1008.8
$$

TC  - TEMPERATURE IN CELSIUS
VSB - VISIBILITY IN STATUTE MILES
WCI - WIND CHILL INDEX
HX  - HEAT INDEX





USA.gov is the U.S. government's official web portal to all federal, state and local government web resources and services.